Location: LDNL
(36.4545°S, 141.6685°E)
Time: 18:57:22
(UTC+10:00)

ITAMSAT 1 - Visible Passes

Search period start: 16 May 2022 00:00
Search period end: 26 May 2022 00:00
Orbit: 783 x 797 km, 98.9° (Epoch: 16 May)

Date Brightness Start Highest point End Pass type
(mag) Time Alt. Az. Time Alt. Az. Time Alt. Az.
16 May 10.3 06:16:14 10° ENE 06:19:30 17° ESE 06:22:46 10° SSE visible
18 May 9.2 06:54:40 10° NE 06:59:29 39° ESE 07:04:22 10° S visible
19 May 10.1 06:26:22 10° ENE 06:30:12 21° ESE 06:34:05 10° SSE visible
20 May 10.6 05:59:41 10° ESE 06:01:05 11° ESE 06:02:29 10° SE visible
22 May 9.8 06:36:41 10° ENE 06:40:56 26° ESE 06:45:15 10° SSE visible
23 May 10.4 06:09:08 10° E 06:11:46 14° ESE 06:14:24 10° SSE visible
25 May 9.4 06:47:05 10° NE 06:51:41 32° ESE 06:56:20 10° S visible
